Regional Weather Roundup
Issued by NWS

Home | Current Version | Previous Version | Graphics & Text | Print | Product List | Glossary Off
Versions: 1 2 3 4 5 6 7 8 9 10 11 12 13 14 15 16 17 18 19 20 21 22 23 24 25 26 27 28 29 30 31 32 33 34 35 36 37 38 39 40 41 42 43 44 45 46 47 48 49 50

000
ASUS43 KDMX 280006
RWRIA

WEATHER ROUNDUP FOR IOWA
NATIONAL WEATHER SERVICE DES MOINES IA
600 PM CST MON FEB 27 2017

NOTE: "FAIR" INDICATES FEW OR NO CLOUDS BELOW 12,000 FEET WITH NO
SIGNIFICANT WEATHER AND/OR OBSTRUCTIONS TO VISIBILITY.

* - THESE STATIONS ARE NOT NWS STATIONS...THUS NOT UNDER NWS
QUALITY CONTROL.  THEY ALSO DO NOT REPORT WEATHER SUCH
AS PRECIPITATION OR FOG.

IAZ001>003-012>014-020>022-031>034-043>046-280100-
   NORTHWEST IOWA

CITY           SKY/WX    TMP DP  RH WIND       PRES   REMARKS
CARROLL *      MOCLDY    41  37  87 SE3       29.79F
CHEROKEE *     CLOUDY    38  33  82 S3        29.78F
DENISON *      CLEAR     45  30  57 SE8       29.76S
LE MARS *      MOCLDY    41  34  75 SE7       29.77F
SHELDON *      MOCLDY    37  37 100 SE10      29.77R WCI  30
SIOUX CITY     CLOUDY    43  32  65 SE9       29.75F
6HR MIN TEMP:  35; 6HR MAX TEMP:  45;

SPENCER        CLOUDY    38  31  76 SE10      29.80F WCI  31
6HR MIN TEMP:  35; 6HR MAX TEMP:  39;

STORM LAKE *   CLOUDY    37  32  81 SE13      29.78F WCI  29
$$

IAZ055>058-069>071-079>083-090>094-280100-
   SOUTHWEST IOWA

CITY           SKY/WX    TMP DP  RH WIND       PRES   REMARKS
ATLANTIC *     DRIZZLE   48  32  53 SE8       29.80R
AUDUBON *      MOCLDY    46  30  53 SE8       29.80S
CLARINDA *     CLOUDY    54  30  40 SE7       29.80F
COUNCIL BLFS * CLOUDY    50  30  46 SE9       29.77F
CRESTON *      CLOUDY    50  28  43 SE13      29.82R
HARLAN  *      CLOUDY    46  32  57 SE7       29.83R
LAMONI         CLOUDY    55  28  35 SE6       29.82S
6HR MIN TEMP:  48; 6HR MAX TEMP:  57;

RED OAK *      CLOUDY    52  28  40 SE10      29.78F
SHENANDOAH *   CLOUDY    52  34  50 SE6       29.78F
$$

IAZ047>049-059>061-072>074-084-280100-
   CENTRAL IOWA

CITY           SKY/WX    TMP DP  RH WIND       PRES   REMARKS
AMES           CLOUDY    49  31  49 SE9       29.85F
6HR MIN TEMP:  46; 6HR MAX TEMP:  53;

ANKENY *       CLOUDY    52  25  35 MISG      29.85F
BOONE *        CLOUDY    45  34  65 SE12      29.83S
CHARITON *     CLOUDY    52  25  35 E9        29.83F
DES MOINES     CLOUDY    54  22  28 SE10      29.84F
6HR MIN TEMP:  50; 6HR MAX TEMP:  56;

GRINNELL*      CLOUDY    49  28  44 E7        29.89F
KNOXVILLE *    CLOUDY    52  21  30 SE9       29.84F
MARSHALLTOWN   CLOUDY    48  30  49 SE14      29.87F
6HR MIN TEMP:  47; 6HR MAX TEMP:  53;

NEWTON *       CLOUDY    48  30  49 SE12      29.86F
PELLA *        CLOUDY    51  26  38 E6        29.88S
PERRY *        CLOUDY    47  30  50 SE10      29.82F
$$

IAZ004>006-015-016-023>025-035-036-280100-
   NORTH CENTRAL IOWA

CITY           SKY/WX    TMP DP  RH WIND       PRES   REMARKS
ALGONA *       CLOUDY    39  32  75 SE9       29.82F WCI  33
CLARION *      CLOUDY    39  36  87 SE12      29.84F WCI  32
ESTHERVILLE    CLOUDY    34  30  85 SE9       29.81F WCI  27
6HR MIN TEMP:  32; 6HR MAX TEMP:  37;

FORT DODGE *   PTCLDY    39  30  70 E9        29.83F WCI  33
MASON CITY     CLOUDY    40  31  70 SE10      29.87F WCI  33
6HR MIN TEMP:  32; 6HR MAX TEMP:  40;

FOREST CITY *  MOCLDY    37  32  81 SE9       29.85F WCI  31
WEBSTER CITY * CLOUDY    41  34  75 E8        29.82F
IOWA FALLS *   MOCLDY    43  36  75 SE10      29.87F
$$

IAZ007>011-017>019-026>030-037>042-050>054-066-280100-
   NORTHEAST IOWA

CITY           SKY/WX    TMP DP  RH WIND       PRES   REMARKS
CEDAR RAPIDS   CLOUDY    49  30  48 SE8       29.92F
6HR MIN TEMP:  49; 6HR MAX TEMP:  54;

CHARLES CITY * CLOUDY    41  34  75 SE8       29.90F
CLINTON *      CLOUDY    48  34  58 SE9       29.99F
DECORAH *      CLOUDY    41  32  70 SE8       29.93S
DUBUQUE        CLOUDY    44  32  62 SE7       29.97F
6HR MIN TEMP:  42; 6HR MAX TEMP:  50;

MONTICELLO *   CLOUDY    46  34  61 SE9       29.95F
OELWEIN *      CLOUDY    45  34  65 SE9       29.92F
WATERLOO       CLOUDY    47  29  49 SE7       29.90F
6HR MIN TEMP:  44; 6HR MAX TEMP:  51;

$$

IAZ064-065-067-068-078-280100-
   EAST CENTRAL IOWA

CITY           SKY/WX    TMP DP  RH WIND       PRES   REMARKS
DAVENPORT      CLOUDY    49  32  52 SE8       29.98F
6HR MIN TEMP:  49; 6HR MAX TEMP:  54;

IOWA CITY      CLOUDY    52  29  41 SE8       29.95F
6HR MIN TEMP:  51; 6HR MAX TEMP:  56;

MUSCATINE *    CLOUDY    54  30  40 SE7       29.95F
QUAD CITIES    CLOUDY    50  30  46 SE8       29.97F
6HR MIN TEMP:  50; 6HR MAX TEMP:  57;

$$

IAZ062-063-075>077-085>089-095>099-280100-
   SOUTHEAST IOWA

CITY           SKY/WX    TMP DP  RH WIND       PRES   REMARKS
BURLINGTON     MOCLDY    54  28  36 SE6       29.94F
6HR MIN TEMP:  52; 6HR MAX TEMP:  58;

FAIRFIELD *    CLOUDY    52  27  37 SE8       29.91S
FORT MADISON * CLOUDY    54  30  40 SE8       29.94F
KEOKUK *       CLOUDY    55  30  38 SE8       29.93S
CENTERVILLE *  MOCLDY    54  27  35 SE6       29.88F
OTTUMWA        MOCLDY    52  24  33 SE9       29.89F
6HR MIN TEMP:  50; 6HR MAX TEMP:  57;

WASHINGTON *   CLOUDY    50  30  46 SE10      29.93F
$$

ABBREVIATIONS USED IN REMARKS
   TC - TEMPERATURES IN CELSIUS
  WCI - WIND CHILL INDEX
   HX - HEAT INDEX
  VSB - VISIBILITY
$$




USA.gov is the U.S. government's official web portal to all federal, state and local government web resources and services.